Regional Weather Roundup
Issued by NWS

Home | Current Version | Previous Version | Text Only | Print | Product List | Glossary On
Versions: 1 2 3 4 5 6 7 8 9 10 11 12 13 14 15 16 17 18 19 20 21 22 23 24 25 26 27 28 29 30 31 32 33 34 35 36 37 38 39 40 41 42 43 44 45 46 47 48 49 50
000
ASUS46 KSTO 202209
RWRCA

NORTHERN AND CENTRAL CA REGIONAL WEATHER ROUNDUP
NATIONAL WEATHER SERVICE SACRAMENTO CA
300 PM PDT WED SEP 20 2017

NOTE: FAIR INDICATES FEW OR NO CLOUDS BELOW 12,000 FEET WITH NO
SIGNIFICANT WEATHER AND/OR OBSTRUCTIONS TO VISIBILITY.

CAZ001-003-202300-
NORTHWEST AREA

CITY           SKY/WX    TMP DP  RH WIND       PRES   REMARKS
CRESCENT CITY  PTSUNNY   63  54  72 S10       29.91S
ARCATA         NOT AVBL
SHELTER COVE   NOT AVBL
UKIAH          MOSUNNY   68  49  50 W9G20     29.87F
$$

CAZ006-505>513-202300-
BAY AREA

CITY           SKY/WX    TMP DP  RH WIND       PRES   REMARKS
SANTA ROSA     MOSUNNY   74  52  46 W14G24    29.83F
SAN RAFAEL     N/A       70  MM  MM MISG
NAPA           PTSUNNY   77  53  43 W20G26    29.85F
CONCORD        MOSUNNY   73  59  61 W14       29.86F
OAKLAND CITY   N/A      MM  MM  MM MISG
OAKLAND        CLOUDY    68  62  81 W12G18    29.90S
SAN FRAN CITY  N/A       65  MM  83 MISG
SAN FRAN ARPT  PTSUNNY   70  58  65 W18       29.89F
LIVERMORE      CLOUDY    71  58  63 W14       29.87F
HAYWARD        CLOUDY    68  58  70 W8        29.89F
REDWOOD CITY   N/A       72  MM  64 MISG
MOFFETT ARPT   CLOUDY    72  60  66 N3        29.89F
SAN JOSE ARPT  PTSUNNY   74  59  59 NW13      29.88F
$$
CAZ034-037-514>518-202300-
CENTRAL COAST

CITY           SKY/WX    TMP DP  RH WIND       PRES   REMARKS
WATSONVILLE    PTSUNNY   69  62  78 SW8G17    29.90F
SALINAS        MOSUNNY   71  59  65 W14       29.90F
MONTEREY       MOSUNNY   70  60  70 W10       29.92F
PT PIEDRAS BLS NOT AVBL
SAN LUIS OBISP SUNNY     73  57  57 NW24G31   29.87F
SANTA MARIA    SUNNY     70  59  68 NW23      29.89R
$$
CAZ015-016-202300-
NORTHERN SACRAMENTO VALLEY

CITY           SKY/WX    TMP DP  RH WIND       PRES   REMARKS
REDDING        CLOUDY    75  52  44 S16G24    29.73F
RED BLUFF      CLOUDY    73  56  54 SE12      29.75F
OROVILLE       CLOUDY    78  55  44 S18G29    29.79F
$$
CAZ016>018-202300-
SOUTHERN SACRAMENTO VALLEY

CITY           SKY/WX    TMP DP  RH WIND       PRES   REMARKS
AUBURN         PTSUNNY   72  72 100 SW13      29.85F
LINCOLN        MOCLDY    77  52  41 S14G20    29.79F
MARYSVILLE     PTSUNNY   80  50  34 SW18G25   29.78F
SAC INTL ARPT  PTSUNNY   77  54  44 W14       29.79F
MATHER AIRPORT PTSUNNY   77  55  47 SW18      29.81F
DOWNTOWN SAC   N/A       78  MM  MM MISG
SAC EXEC ARPT  CLOUDY    78  56  46 SW16G24   29.81F
VACAVILLE      MOSUNNY   77  54  44 SW18G29   29.82F
TRAVIS AFB     MOSUNNY   76  54  46 W23G37    29.80F
$$
CAZ019>021-202300-
SAN JOAQUIN VALLEY

CITY           SKY/WX    TMP DP  RH WIND       PRES   REMARKS
STOCKTON       MOSUNNY   78  58  49 W10G21    29.84F
MODESTO        SUNNY     79  56  45 W8G18     29.83F
MERCED         SUNNY     80  53  39 W7        29.83F
LEMOORE        SUNNY     84  50  30 NE7       29.84F
FRESNO         MOSUNNY   80  46  30 NW7       29.85F
HANFORD        SUNNY     82  48  30 W7        29.85F
PORTERVILLE      N/A     81  47  30 NW8       29.85F
BAKERSFIELD    SUNNY     80  44  27 NW7       29.84F
$$
CAZ011-012-071-202300-
NORTHERN MOUNTAINS

CITY           SKY/WX    TMP DP  RH WIND       PRES   REMARKS
YREKA          MOSUNNY   61  34  36 NW18G26   29.81F
MOUNT SHASTA   PTSUNNY   64  37  36 VRB3      29.78F
ALTURAS        CLOUDY    60  33  36 W22G31    29.78F
$$
CAZ011-012-071-202300-
SIERRA NEVADA MTNS

CITY           SKY/WX    TMP DP  RH WIND       PRES   REMARKS
BLUE CANYON    CLOUDY    50  46  86 S15       29.94F
TRUCKEE        CLOUDY    52  39  62 MISG      29.90F
TAHOE VLY ARPT PTSUNNY   58  37  45 S25G43    29.89F
MAMMOTH LAKES  FAIR      69  32  25 S23G30    29.94F
$$




USA.gov is the U.S. government's official web portal to all federal, state and local government web resources and services.